Location: Zagreb
(45.8000°N, 16.0000°E)
Time: 23:41:23
(UTC+02:00)

Courier 1B - Pass Details

Date: 23 July 2024
Orbit: 962 x 1208 km, 28.3° (Epoch: 27 April)

Event Time Altitude Azimuth Distance (km) Brightness Sun altitude
Rises 13:58:53 0° 234° (SW) 4,100 11.1 61.6°
Reaches altitude 10° 14:02:38 10° 219° (SW) 3,123 10.8 61.3°
Maximum altitude 14:07:53 20° 176° (S) 2,426 10.3 60.8°
Drops below altitude 10° 14:13:01 10° 133° (SE) 3,040 10.3 60.3°
Sets 14:16:36 0° 117° (ESE) 3,958 10.6 60.0°
